Powrót do katalogu

NAVSTAR 81

USA 319

AktywnyNawigacjaHEO
NORAD 48859·PAYLOAD·🇺🇸 United States

Wystrzelony Jun 17, 2021 z Cape Canaveral Space Force Station

Loading…

Następne Przeloty (najbliższe 24 godziny)

TLE

ŚwieżeSource: CelesTrak SupGP

Epoka: Sep 16, 2026, 16:44 UTC

1 48859C 21054A   26259.69756944  .00000000  00000+0  00000+0 0  2597
2 48859  55.1244 328.7782 0028573 230.8257  93.4073  2.00563866    19

Śledź NAVSTAR 81 w czasie rzeczywistym z AllMySat

Download on the App Store